Showing default

FLOCK 4G 25, 62646

Orbit data source: Space-Track

FLOCK 4G 25, 62646 is a payload satellite owned by Planet (US) in SSO that was launched on Tue, 14 Jan 2025 UTC via an FALCON 9 launch vehicle from the Air Force Western Test Range (AFWTR). Payload-class satellites include a variety of spacecraft equipped with specific instruments for various scientific and technological missions. These include communications satellites like Starlink; space stations such as the ISS; scientific satellites like the Hubble; Earth observation satellites from companies like Planet Labs, Umbra, and HawkEye 360; GPS; miniature CubeSats for education and research; and military/defense satellites.

Loading next visibility...
Identifier
62646, 2025-009AP
Orbit
SSO
Country
Flag of USUS
Related business
Manufacturer
Planet
Mission
Operational Commercial Imaging
Bus & Motor
CUBESAT 3U, Unknown motor
Mass
5.7 kg wet, 5.7 kg dry
Launch date (UTC)
2025-01-14 (1 year ago)
Launch vehicle
FALCON 9
Launch site
Air Force Western Test Range (AFWTR)
Object type
Payload
Rocket body
Debris
Shape & HBR
Box + 2 Pan, 1.0 m
Radar Cross Section
0.072 m², Medium (>0.1 m² and < 1m²)

Expand to show TLE details & history
Last TLE update: 21 hours ago

TLE from 21 hours ago
0 FLOCK 4G 25
1 62646U 25009AP  26124.47376784  .00008759  00000-0  31738-3 0  9995
2 62646  97.4015 206.7820 0003525 105.5810 254.5819 15.28602520 72242
Epoch: 2026-05-04T11:22Z
TLE epoch observation values (Epoch: 2026-05-04T11:22:13.541Z)
Latitude
-0.00002°
Longitude
173.86313°
Altitude
483.735 km
Speed
7.623 km/s
True Right ascension
13h 47m 07s
True Declination
0° 00' 00"
Sunlit
Object was in full shadow at epoch
Visualization orbit readout
Latitude
Unknown
Longitude
Unknown
Altitude
Unknown
Speed
Unknown
Apparent Right ascension
Unknown
Apparent Declination
Unknown
Sunlit
N/A
Visualization observer readout
Local Sidereal Time
15:48:19
Azimuth
Unknown
Elevation
Unknown
Doppler factor
Unknown
Orbital elements
Apogee altitude
479.36 km
Perigee altitude
474.527 km
Semi-major axis
6,855.08 km
Eccentricity
0.00035
Inclination
97.4015°
RAAN
206.782°
Arg. of periapsis
105.581°
True anomaly
254.54296°
Mean anomaly
254.5819°
Eccentric anomaly
254.56243°
Mean motion
3.82406 °/min
Orbital period
94.14 mins
BSTAR
0.00031738
Loading maneuver chart data...
Computing Atmospheric mass density...
Loading historical data...
Loading historical data...
Loading historical data...
Loading historical data...
Loading historical data...
Loading historical data...
Loading historical data...

Documentation

Showing up to 5 results
|